Regional Weather Roundup
Issued by NWS Upton, NY

Current Version | Previous Version | Graphics & Text | Print | Product List | Glossary Off
Versions: 1 2 3 4 5 6 7 8 9 10 11 12 13 14 15 16 17 18 19 20 21 22 23 24 25 26 27 28 29 30 31 32 33 34 35 36 37 38 39 40 41 42 43 44 45 46 47 48 49 50

000
ASUS41 KOKX 190105
RWROKX

REGIONAL WEATHER ROUNDUP
NATIONAL WEATHER SERVICE NEW YORK NY
800 PM EST THU DEC 18 2014

NOTE: "FAIR" INDICATES FEW OR NO CLOUDS BELOW 12,000 FEET WITH NO
SIGNIFICANT WEATHER AND/OR OBSTRUCTIONS TO VISIBILITY.

NYZ071-072-176-178-NJZ106-104-190200-
NEW YORK CITY METRO AREA


CITY           SKY/WX    TMP DP  RH WIND       PRES   REMARKS
CENTRAL PARK   MOCLDY    38  25  59 VRB7G18   29.99R WCI  33
LAGUARDIA APRT MOCLDY    39  28  64 NW16      29.97R WCI  30
KENNEDY INTL   MOCLDY    39  25  57 NW14G23   29.98R WCI  31
NEWARK/LIBERTY MOCLDY    38  26  62 NW12      29.98S WCI  30
BRNX BOT. GARD   N/A    N/A N/A N/A W8        29.97F
TETERBORO      PTCLDY    38  26  62 NW7       29.97S WCI  33
$$

NYZ177-179-078>081-190200-
LONG ISLAND NEW YORK

CITY           SKY/WX    TMP DP  RH WIND       PRES   REMARKS
FARMINGDALE    CLEAR     38  26  62 NW6       29.96R WCI  33
ISLIP          CLEAR     37  26  64 NW10      29.93R WCI  30
SHIRLEY        CLEAR     37  26  64 NW9       29.94S WCI  30
WESTHAMPTON    CLEAR     37  26  64 W6        29.94R WCI  32
MONTAUK POINT    N/A     40  28  62 NW14G21   29.92R WCI  32
$$

NYZ052-065-067-190200-
HUDSON VALLEY

CITY           SKY/WX    TMP DP  RH WIND       PRES   REMARKS
WHITE PLAINS   MOCLDY    36  26  67 W15G22    29.93S WCI  27
NEWBURGH       PTCLDY    36  28  75 NW14G29   29.94F WCI  27
MONTGOMERY     CLOUDY    36  27  69 NW7       29.95S WCI  30
POUGHKEEPSIE   CLOUDY    37  26  64 W7        29.95S WCI  32
ALBANY         CLOUDY    34  26  72 NW15G22   29.97S WCI  24
$$

NJZ001-105-106-008-010-013-015-019>022-104-190200-
NEW JERSEY

CITY           SKY/WX    TMP DP  RH WIND       PRES   REMARKS
NEWARK/LIBERTY MOCLDY    38  26  62 NW12      29.98S WCI  30
TETERBORO      PTCLDY    38  26  62 NW7       29.97S WCI  33
CALDWELL       CLOUDY    37  26  64 W7        29.99R WCI  32
MORRISTOWN     MOCLDY    39  28  65 NW5       29.99S
SOMERVILLE     CLOUDY    39  26  59 NW6       29.98S WCI  35
SUSSEX         CLOUDY    36  27  69 VRB6      29.98R WCI  31
ANDOVER          N/A     36  26  67 VRB5      29.98R WCI  32
TRENTON        CLOUDY    36  24  62 W6        30.01R WCI  31
MILLVILLE      MOCLDY    34  25  69 W9        30.06S WCI  27
ATLANTIC CITY  MOCLDY    35  24  64 W9        30.04R WCI  28
WRIGHTSTOWN    MOCLDY    35  25  66 W7        29.99S WCI  29
TOMS RIVER     MOCLDY    36  25  64 W7        30.01S WCI  30
BELMAR         PTCLDY    36  21  55 W8        30.00R WCI  29
$$

PAZ047>061-062-071-190200-
EASTERN PENNSYLVANIA

CITY           SKY/WX    TMP DP  RH WIND       PRES   REMARKS
PHILADELPHIA   MOCLDY    36  24  62 W12       30.07R WCI  28
ALLENTOWN      CLOUDY    37  25  61 NW7       30.00S WCI  32
SCRANTON       CLOUDY    35  25  66 NW12G20   29.99F WCI  27
$$

CTZ002-004>006-009-010-012-RIZ004-006-007-MAZ004-011-015-190200-
SOUTHERN NEW ENGLAND
 IN CT

CITY           SKY/WX    TMP DP  RH WIND       PRES   REMARKS
BRADLEY INTL   CLOUDY    37  25  61 NW9G21    29.90S WCI  30
HARTFORD       CLOUDY    38  26  62 VRB6      29.92R WCI  33
DANBURY        CLEAR     34  24  67 VRB3      29.94S
WTRBRY/OXFORD  CLEAR     34  21  60 NW6       29.91R WCI  29
BRIDGEPORT     CLEAR     36  26  67 W8        29.93F WCI  30
MERIDEN        CLEAR     34  25  69 NW6       29.93R WCI  29
NEW HAVEN      CLEAR     41  27  57 W5        29.93S
CHESTER        FAIR      36  28  75 W8        29.90S WCI  29
GROTON         CLEAR     35  27  72 W7        29.90S WCI  29
WILLIMANTIC    MOCLDY    36  25  64 NW8       29.89F WCI  30

 IN RI

CITY           SKY/WX    TMP DP  RH WIND       PRES   REMARKS
PROVIDENCE     PTCLDY    37  26  64 NW9       29.87F WCI  30
BLOCK ISLAND   PTCLDY    37  25  60 NW10G20   29.89R WCI  30
WESTERLY       PTCLDY    37  26  64 W3        29.90S

 IN MA

CITY           SKY/WX    TMP DP  RH WIND       PRES   REMARKS
BOSTON         CLOUDY    39  28  64 W12G20    29.86R WCI  32
WORCESTER      CLOUDY    33  27  78 W12       29.84R WCI  24
WESTFIELD      CLOUDY    36  25  64 NW10      29.90R WCI  28
PROVINCETOWN   CLOUDY    41  28  60 W16G25    29.83S
NANTUCKET      CLEAR     39  29  67 W10       29.84F WCI  32
$$

ANZ330-335-338-340-345-350-353-355-190200-
COASTAL MARINE OBSERVATIONS


STATION/POSITION TIME  SKY/WX   TEMP    WIND        PRES    VSBY  WAVE
                                AIR SEA DIR/SP/G                  HT/PER
                 (UTC)          (F)     (DEG/KT/KT) (MB)    (MI)  (FT/S)
NY HARB ENTRANCE 0100            41 47  300/ 19/ 25 1014.9          3/ 4
4S FIRE IS       0100               47                N/A           3/ 5
20S FIRE ISLAND  0000            41 49              1014.5          5/ 5
23SW MTP         0100                                 N/A           4/ 6
HUDSON CANYON    0100            43 55  310/ 19/ 25 1014.2          7/ 7
EXECUTION ROCKS  0100            39 42  300/ 16/ 21   N/A
WESTERN LI SOUND 0100            39     300/ 14/ 19   N/A           1/ 3
CENTRAL LI SOUND 0000            40 45  310/ 14/ 17   N/A           3/ 5
EASTERN LI SOUND NOT AVBL
ROBBINS REEF     0100            39     330/ 10/ 16 1013.9
$$


>>>>>>>>>>>>>>>>>>>>>>>>>>>> KEY <<<<<<<<<<<<<<<<<<<<<<<<<<<
>                                                          <
>     SKY/WX - SKY CONDITION/PRESENT WEATHER               <
>     TMP    - TEMPERATURE IN FAHRENHEIT                   <
>     DP     - DEWPOINT IN FAHRENHEIT                      <
>     RH     - RELATIVE HUMIDITY IN PERCENT                <
>     WIND   - DIRECTION AND SPEED IN MPH                  <
>     PRES   - MEAN SEA LEVEL PRESSURE IN INCHES OF HG     <
>     WCI    - WIND CHILL INDEX                            <
>     VSB    - VISIBILITY IN MILES                         <
>     HX     - HEAT INDEX                                  <
>     TC     - TEMPERATURE IN CELSIUS                      <
>     VRB    - VARIABLE WIND DIRECTION                     <
>                                                          <
>>>>>>>>>>>>>>>>>>>>>>>>>>>> KEY <<<<<<<<<<<<<<<<<<<<<<<<<<<




USA.gov is the U.S. government's official web portal to all federal, state and local government web resources and services.